CZ-4C DEB, 43263

Orbit data source: Space-Track

CZ-4C DEB, 43263 is space debris in SSO originally from a launch on Sat, 31 Mar 2018 UTC launched from the Taiyaun Space Center, China (TSC). Debris objects in space refer to the collection of defunct objects orbiting the Earth. Examples of debris include non-operational satellites, rocket bodies, and fragments generated from explosions, collisions, or faulty payload assembly.

Loading next visibility...
Identifier
43263, 2018-031E
Orbit
SSO
Country
Flag of CNCN / PRC
Related business
Manufacturer
Unknown
Mission
Spacecraft
Bus & Motor
Unknown
Mass
Unknown
Launch date (UTC)
2018-03-31 (8 years ago)
Launch vehicle
Unknown
Launch site
Taiyaun Space Center, China (TSC)
Object type
Payload
Rocket body
Debris
Shape & HBR
Unknown shape, 0.1 m
Radar Cross Section
Small (<0.1 m²)

Expand to show TLE details & history
Last TLE update: 13 hours ago

TLE from 13 hours ago
0 CZ-4C DEB
1 43263U 18031E   25341.24141425  .00005188  00000-0  69161-3 0  9997
2 43263  97.6926 348.0622 0037704 245.5149 114.2129 14.79542761412974
Epoch: 2025-12-07T05:47Z
TLE epoch observation values (Epoch: 2025-12-07T05:47:38.191Z)
Latitude
-0.00004°
Longitude
-175.10455°
Altitude
644.718 km
Speed
7.53 km/s
True Right ascension
23h 12m 14s
True Declination
0° 00' 00"
Sunlit
Object was in daylight at epoch
Visualization orbit readout
Latitude
Unknown
Longitude
Unknown
Altitude
Unknown
Speed
Unknown
Apparent Right ascension
Unknown
Apparent Declination
Unknown
Sunlit
N/A
Visualization observer readout
Local Sidereal Time
16:41:56
Azimuth
Unknown
Elevation
Unknown
Doppler factor
Unknown
Orbital elements
Apogee altitude
654.215 km
Perigee altitude
601.385 km
Semi-major axis
7,005.937 km
Eccentricity
0.00377
Inclination
97.6926°
RAAN
348.0622°
Arg. of periapsis
245.5149°
True anomaly
114.60618°
Mean anomaly
114.2129°
Eccentric anomaly
114.40962°
Mean motion
3.70121 °/min
Orbital period
97.27 mins
BSTAR
0.00069161
Loading maneuver chart data...
Computing Atmospheric mass density...
Loading historical data...
Loading historical data...
Loading historical data...
Loading historical data...
Loading historical data...
Loading historical data...
Loading historical data...

Documentation

Showing up to 5 results
|